{"data":{"norad_id":41552,"epoch":"2026-05-25T04:07:00.115968Z","epoch_age_seconds":59391,"freshness":"FRESH","line1":"1 41552U 16031A   26145.17152912 -.00000124  00000+0  00000+0 0  9990","line2":"2 41552   0.0623  44.1050 0003884   1.2376 337.7063  1.00272334 36488","mean_motion":1.00272334,"eccentricity":0.0003884,"inclination_deg":0.0623,"raan_deg":44.105,"arg_perigee_deg":1.2376,"mean_anomaly_deg":337.7063,"bstar":0,"rev_number":3648,"period_min":1436.0890412703,"perigee_km":35770.064335146,"apogee_km":35802.817779381,"semimajor_km":42164.578057264,"source":"CELESTRAK","updated_at":"2026-05-25T13:38:14.002183Z"}}